Home   Weather   Constanța   Past weeks

Flag for Romania Past Weather in Constanța, Romania — Yesterday and Last 2 Weeks

44 °F

Passing clouds.

Feels Like: 44 °F
Forecast: 38 / 55 °F
Wind: 2 mph from North

Location: Constanta

Current Time: Oct 28, 2016 at 10:56:01 PM

Latest Report: Oct 28, 2016 at 10:00 PM

Visibility: 6 mi

Pressure: 30.50 "Hg

Humidity: 64%

Dew Point: 33 °F

Location of ConstanțaLocation

Past Weather in Constanța — Graph


Constanța Temperature Yesterday

Maximum temperature yesterday: 48 °F (at 12:00 AM)
Minimum temperature yesterday: 43 °F (at 9:00 AM)
Average temperature yesterday: 46 °F

High & Low Weather Summary for the Past Weeks

High62 °F (Oct 15, 3:00 PM)99% (Oct 23, 3:00 AM)30.56 "Hg (Oct 23, 3:00 AM)
Low39 °F (Oct 14, 8:00 AM)48% (Oct 17, 12:00 PM)30.08 "Hg (Oct 22, 3:00 PM)
Average52 °F77%30.31 "Hg
* Reported Oct 13 9:00 PM — Oct 28 9:00 PM, Constanța, Weather by CustomWeather, © 2016

Note: Actual official high and low records may vary slightly from our data, if they occured in-between our weather recording intervals... More about our weather records


Constanța Weather History for the Previous 24 Hours

Scroll right to see more
Time TempWeatherWind HumidityBarometerVisibility
9:00 PM
Fri, Oct 28
45 °FPassing clouds.1 mph61%30.51 "Hg6 mi
8:00 PM46 °FPassing clouds.1 mph54%30.51 "Hg6 mi
7:00 PM46 °FPassing clouds.1 mph59%30.50 "Hg6 mi
6:00 PM47 °FPassing clouds.1 mph60%30.50 "Hg6 mi
5:00 PM47 °FPartly sunny.1 mph60%30.51 "Hg6 mi
4:00 PM49 °FPartly sunny.1 mph57%30.51 "Hg6 mi
3:00 PM49 °FPartly sunny.2 mph58%30.52 "Hg6 mi
2:00 PM49 °FPartly sunny.1 mph61%30.53 "Hg6 mi
1:00 PM47 °FPartly sunny.2 mph65%30.54 "Hg6 mi
12:00 PM47 °FScattered clouds.1 mph67%30.54 "Hg6 mi
11:00 AM45 °FPartly sunny.5 mph66%30.53 "Hg6 mi
10:00 AM44 °FPartly sunny.2 mph70%30.53 "Hg6 mi
9:00 AM43 °FSunny.2 mph75%30.52 "Hg6 mi
8:00 AM42 °FScattered clouds.1 mph79%30.50 "Hg6 mi
7:00 AM43 °FPassing clouds.1 mph80%30.50 "Hg6 mi
6:00 AM43 °FPassing clouds.2 mph78%30.49 "Hg6 mi
3:00 AM44 °FPassing clouds.5 mph77%30.47 "Hg6 mi
2:00 AM45 °FOvercast.3 mph75%30.47 "Hg6 mi
1:00 AM45 °FCool.3 mph77%30.47 "HgN/A
12:00 AM45 °FOvercast.3 mph80%30.47 "Hg6 mi
11:00 PM
Thu, Oct 27
45 °FOvercast.3 mph77%30.47 "Hg6 mi
10:00 PM46 °FOvercast.1 mph81%30.45 "Hg6 mi
Weather by CustomWeather, © 2016

See weather overviewHow to use our weather pages